OBJECT B, 65946

Orbit data source: Space-Track

You're viewing an Uncataloged Satellite

Recently launched and/or uncataloged satellites may have evolving metadata. Metadata may include but not limited to: Owner, Maufacturer, Bus, Motor, and Mission.

OBJECT B, 65946 is a satellite owned by CASC (CN) in LEO that was launched on Mon, 13 Oct 2025 UTC launched from the Jiuquan Satellite Launch Center, China (JSC). Unknown objects in Earth's orbit typically refer to objects detected orbiting the Earth but have not yet been identified or cataloged. These objects could be anything from previously untracked satellites, spent rocket stages, debris from satellite collisions, or even natural meteoroids temporarily captured by Earth's gravity.

Loading next visibility...
Identifier
65946, 2025-227B
Orbit
LEO
Country
Flag of CNCN / PRC
Related business
Manufacturer
BWYIC
Mission
Spacecraft
Bus & Motor
CZ-2 STAGE 2, Unknown motor
Mass
4,006 kg wet, 4,006 kg dry
Launch date (UTC)
2025-10-13 (8 months ago)
Launch vehicle
Unknown
Launch site
Jiuquan Satellite Launch Center, China (JSC)
Object type
Unknown
Shape & HBR
Cyl, 3.9 m
Radar Cross Section
27.824 m², Large (>1 m²)

Expand to show TLE details & history
Last TLE update: 11 hours ago

TLE from 11 hours ago
0 OBJECT B
1 65946U 25227B   26171.37930597  .00007355  00000-0  23505-3 0  9996
2 65946  80.1531 131.5838 0017643 291.4572  68.4779 15.32173041 38223
Epoch: 2026-06-20T09:06Z
TLE epoch observation values (Epoch: 2026-06-20T09:06:12.035Z)
Latitude
-0.00012°
Longitude
86.43886°
Altitude
467.941 km
Speed
7.635 km/s
True Right ascension
08h 46m 20s
True Declination
0° 00' 00"
Sunlit
Object was in daylight at epoch
Visualization orbit readout
Latitude
Unknown
Longitude
Unknown
Altitude
Unknown
Speed
Unknown
Apparent Right ascension
Unknown
Apparent Declination
Unknown
Sunlit
N/A
Visualization observer readout
Local Sidereal Time
07:21:58
Azimuth
Unknown
Elevation
Unknown
Doppler factor
Unknown
Orbital elements
Apogee altitude
478.477 km
Perigee altitude
454.326 km
Semi-major axis
6,844.539 km
Eccentricity
0.00176
Inclination
80.1531°
RAAN
131.5838°
Arg. of periapsis
291.4572°
True anomaly
68.66613°
Mean anomaly
68.4779°
Eccentric anomaly
68.572°
Mean motion
3.83289 °/min
Orbital period
93.92 mins
BSTAR
0.00023505
Loading maneuver chart data...
Computing Atmospheric mass density...
Loading historical data...
Loading historical data...
Loading historical data...
Loading historical data...
Loading historical data...
Loading historical data...
Loading historical data...
Other satellites on launch #227 in the year 2025 (2025-10-13 UTC)

Documentation

Showing up to 5 results
|